User: anonymous   Login
Location: Unspecified
(0.0000°N, 0.0000°E)
Time: 18:41:56
(UTC+00:00)
Language:

Kosmos-1333 - Orbit

View from above orbital plane
View from above orbital plane
View from above satellite
View from above satellite

Ground track
Ground track

The orbit data is extracted from the following two-line orbital elements,

1 13033U 82003A   19077.61724959 +.00000041 +00000-0 +28211-4 0  9993
2 13033 082.9428 321.0718 0032268 356.3729 020.6018 13.73216441862794
Epoch (UTC): 18 March 2019 14:48:50
Eccentricity: 0.0032268
inclination: 82.9428°
perigee height: 964 km
apogee height: 1012 km
right ascension of ascending node: 321.0718°
argument of perigee: 356.3729°
revolutions per day: 13.73216441
mean anomaly at epoch: 20.6018°
orbit number at epoch: 86279

The dashed part of the orbit path shows where the satellite is in the earth's shadow,  

DLR